Time,TemperatureF,DewpointF,PressureIn,WindDirection,WindDirectionDegrees,WindSpeedMPH,WindSpeedGustMPH,Humidity,HourlyPrecipIn,Conditions,Clouds,dailyrainin,SoftwareType,DateUTC
2013-01-30 00:05:00,51.8,46.2,29.68,SE,135,0.0,0.0,81,0.00,CLR,,0.00,WeatherDisplay:10.37,2013-01-30 05:05:00,
2013-01-30 00:10:00,52.0,46.3,29.69,East,80,0.0,0.0,81,0.00,CLR,,0.00,WeatherDisplay:10.37,2013-01-30 05:10:00,
2013-01-30 00:15:00,51.8,46.2,29.69,NNE,23,0.0,0.0,81,0.00,CLR,,0.00,WeatherDisplay:10.37,2013-01-30 05:15:00,
2013-01-30 00:20:00,51.7,46.1,29.67,NNE,22,0.0,0.0,81,0.00,CLR,,0.00,WeatherDisplay:10.37,2013-01-30 05:20:00,
2013-01-30 00:25:00,52.0,46.7,29.67,NNE,22,0.0,0.0,82,0.00,CLR,,0.00,WeatherDisplay:10.37,2013-01-30 05:25:00,
2013-01-30 00:30:00,51.6,46.3,29.67,NNE,22,0.0,0.0,82,0.00,CLR,,0.00,WeatherDisplay:10.37,2013-01-30 05:30:00,
2013-01-30 00:40:00,51.6,46.3,29.67,NNE,22,0.0,0.0,82,0.00,CLR,,0.00,WeatherDisplay:10.37,2013-01-30 05:40:00,
2013-01-30 00:45:00,51.4,46.1,29.66,NNE,22,0.0,0.0,82,0.00,CLR,,0.00,WeatherDisplay:10.37,2013-01-30 05:45:00,
2013-01-30 00:50:00,51.4,46.1,29.65,NNE,22,0.0,0.0,82,0.00,CLR,,0.00,WeatherDisplay:10.37,2013-01-30 05:50:00,
2013-01-30 00:55:00,51.4,46.1,29.65,NNE,22,0.0,0.0,82,0.00,CLR,,0.00,WeatherDisplay:10.37,2013-01-30 05:55:00,
2013-01-30 01:00:00,51.4,46.1,29.64,NNE,22,0.0,0.0,82,0.00,CLR,,0.00,WeatherDisplay:10.37,2013-01-30 06:00:00,
2013-01-30 01:05:00,51.3,46.0,29.64,NNE,22,0.0,0.0,82,0.00,CLR,,0.00,WeatherDisplay:10.37,2013-01-30 06:05:00,
2013-01-30 01:10:00,51.3,46.0,29.63,NNE,22,0.0,0.0,82,0.00,CLR,,0.00,WeatherDisplay:10.37,2013-01-30 06:10:00,
2013-01-30 01:15:00,51.3,46.0,29.63,NNE,22,0.0,0.0,82,0.00,CLR,,0.00,WeatherDisplay:10.37,2013-01-30 06:15:00,
2013-01-30 01:20:00,51.3,46.0,29.63,NNE,22,0.0,0.0,82,0.00,CLR,,0.00,WeatherDisplay:10.37,2013-01-30 06:20:00,
2013-01-30 01:25:00,51.3,46.0,29.63,NNE,22,0.0,0.0,82,0.00,CLR,,0.00,WeatherDisplay:10.37,2013-01-30 06:25:00,
2013-01-30 01:30:00,51.3,46.3,29.62,NE,53,0.0,0.0,83,0.00,CLR,,0.00,WeatherDisplay:10.37,2013-01-30 06:30:00,
2013-01-30 01:35:00,51.3,46.3,29.62,ESE,102,0.0,0.0,83,0.00,CLR,,0.00,WeatherDisplay:10.37,2013-01-30 06:35:00,
2013-01-30 01:40:00,51.2,46.3,29.62,ESE,112,0.0,0.0,83,0.00,CLR,,0.00,WeatherDisplay:10.37,2013-01-30 06:40:00,
2013-01-30 01:45:00,50.9,45.9,29.60,ESE,112,0.0,0.0,83,0.00,CLR,,0.00,WeatherDisplay:10.37,2013-01-30 06:45:00,
2013-01-30 01:55:00,51.1,46.1,29.60,East,91,0.0,0.0,83,0.00,CLR,,0.00,WeatherDisplay:10.37,2013-01-30 06:55:00,
2013-01-30 02:00:00,51.3,46.3,29.60,East,92,0.0,0.0,83,0.00,CLR,,0.00,WeatherDisplay:10.37,2013-01-30 07:00:00,
2013-01-30 02:05:00,51.4,46.4,29.60,ENE,61,0.0,0.0,83,0.00,CLR,,0.00,WeatherDisplay:10.37,2013-01-30 07:05:00,
2013-01-30 02:10:00,52.0,47.0,29.60,WNW,287,0.0,0.0,83,0.00,CLR,,0.00,WeatherDisplay:10.37,2013-01-30 07:10:00,
2013-01-30 02:20:00,52.7,47.4,29.58,NE,41,0.0,0.0,82,0.00,CLR,,0.00,WeatherDisplay:10.37,2013-01-30 07:20:00,
2013-01-30 02:25:00,53.1,47.1,29.58,NE,47,0.0,0.0,80,0.00,CLR,,0.00,WeatherDisplay:10.37,2013-01-30 07:25:00,
2013-01-30 02:30:00,53.6,47.2,29.58,North,352,0.0,0.0,79,0.00,CLR,,0.00,WeatherDisplay:10.37,2013-01-30 07:30:00,
2013-01-30 02:35:00,53.9,47.2,29.57,NNE,14,0.0,0.0,78,0.00,CLR,,0.00,WeatherDisplay:10.37,2013-01-30 07:35:00,
2013-01-30 02:40:00,54.3,46.9,29.57,ENE,60,0.0,0.0,76,0.00,CLR,,0.00,WeatherDisplay:10.37,2013-01-30 07:40:00,
2013-01-30 02:45:00,54.7,46.6,29.57,East,87,0.0,0.0,74,0.00,CLR,,0.00,WeatherDisplay:10.37,2013-01-30 07:45:00,
2013-01-30 02:50:00,55.0,46.5,29.57,NE,42,0.0,0.0,73,0.00,CLR,,0.00,WeatherDisplay:10.37,2013-01-30 07:50:00,
2013-01-30 02:55:00,55.1,45.8,29.57,NNE,13,0.0,0.0,71,0.00,CLR,,0.00,WeatherDisplay:10.37,2013-01-30 07:55:00,
2013-01-30 03:00:00,55.6,46.3,29.56,North,351,0.0,0.0,71,0.00,CLR,,0.00,WeatherDisplay:10.37,2013-01-30 08:00:00,
2013-01-30 03:05:00,55.6,45.6,29.56,North,6,0.0,0.0,69,0.00,CLR,,0.00,WeatherDisplay:10.37,2013-01-30 08:05:00,
2013-01-30 03:10:00,55.8,45.4,29.56,NNE,29,0.0,0.0,68,0.00,CLR,,0.00,WeatherDisplay:10.37,2013-01-30 08:10:00,
2013-01-30 03:15:00,55.9,45.1,29.56,NE,50,0.0,0.0,67,0.00,CLR,,0.00,WeatherDisplay:10.37,2013-01-30 08:15:00,
2013-01-30 03:20:00,56.1,45.3,29.56,NNE,26,0.0,0.0,67,0.00,CLR,,0.00,WeatherDisplay:10.37,2013-01-30 08:20:00,
2013-01-30 03:30:00,55.9,44.7,29.55,NNW,338,0.0,0.0,66,0.00,CLR,,0.00,WeatherDisplay:10.37,2013-01-30 08:30:00,
2013-01-30 03:35:00,55.8,44.6,29.54,NNW,338,0.0,0.0,66,0.00,CLR,,0.00,WeatherDisplay:10.37,2013-01-30 08:35:00,
2013-01-30 03:40:00,55.8,44.6,29.54,NNW,338,0.0,0.0,66,0.00,CLR,,0.00,WeatherDisplay:10.37,2013-01-30 08:40:00,
2013-01-30 03:45:00,55.8,44.6,29.54,NNW,338,0.0,0.0,66,0.00,CLR,,0.00,WeatherDisplay:10.37,2013-01-30 08:45:00,
2013-01-30 03:50:00,55.6,44.4,29.54,NNW,338,0.0,0.0,66,0.00,CLR,,0.00,WeatherDisplay:10.37,2013-01-30 08:50:00,
2013-01-30 03:55:00,55.8,44.6,29.54,West,267,0.0,0.0,66,0.00,CLR,,0.00,WeatherDisplay:10.37,2013-01-30 08:55:00,
2013-01-30 04:05:00,55.8,44.6,29.52,West,270,0.0,0.0,66,0.00,CLR,,0.00,WeatherDisplay:10.37,2013-01-30 09:05:00,
2013-01-30 04:10:00,55.8,44.6,29.52,WSW,240,0.0,0.0,66,0.00,CLR,,0.00,WeatherDisplay:10.37,2013-01-30 09:10:00,
2013-01-30 04:15:00,55.8,44.6,29.52,SE,137,0.0,0.0,66,0.00,CLR,,0.00,WeatherDisplay:10.37,2013-01-30 09:15:00,
2013-01-30 04:20:00,55.8,44.6,29.52,East,101,0.0,0.0,66,0.00,CLR,,0.00,WeatherDisplay:10.37,2013-01-30 09:20:00,
2013-01-30 04:25:00,55.6,44.4,29.52,East,90,0.0,0.0,66,0.00,CLR,,0.00,WeatherDisplay:10.37,2013-01-30 09:25:00,
2013-01-30 04:30:00,55.2,44.1,29.50,East,90,0.0,0.0,66,0.00,CLR,,0.00,WeatherDisplay:10.37,2013-01-30 09:30:00,
2013-01-30 04:35:00,55.0,43.9,29.50,East,90,0.0,0.0,66,0.00,CLR,,0.00,WeatherDisplay:10.37,2013-01-30 09:35:00,
2013-01-30 04:40:00,55.0,43.8,29.50,East,90,0.0,0.0,66,0.00,CLR,,0.00,WeatherDisplay:10.37,2013-01-30 09:40:00,
2013-01-30 04:45:00,54.5,43.8,29.50,East,90,0.0,0.0,67,0.00,CLR,,0.00,WeatherDisplay:10.37,2013-01-30 09:45:00,
2013-01-30 04:50:00,54.5,43.8,29.49,East,90,0.0,0.0,67,0.00,CLR,,0.00,WeatherDisplay:10.37,2013-01-30 09:50:00,
2013-01-30 04:55:00,54.2,43.8,29.49,East,90,0.0,0.0,68,0.00,CLR,,0.00,WeatherDisplay:10.37,2013-01-30 09:55:00,
2013-01-30 05:05:00,53.9,44.0,29.48,East,90,0.0,0.0,69,0.00,CLR,,0.00,WeatherDisplay:10.37,2013-01-30 10:05:00,
2013-01-30 05:10:00,53.6,43.7,29.48,East,90,0.0,0.0,69,0.00,CLR,,0.00,WeatherDisplay:10.37,2013-01-30 10:10:00,
2013-01-30 05:15:00,53.6,43.7,29.48,East,90,0.0,0.0,69,0.00,CLR,,0.00,WeatherDisplay:10.37,2013-01-30 10:15:00,
2013-01-30 05:20:00,53.6,44.0,29.48,ENE,68,0.0,0.0,70,0.00,CLR,,0.00,WeatherDisplay:10.37,2013-01-30 10:20:00,
2013-01-30 05:25:00,53.5,43.9,29.48,NNE,32,0.0,0.0,70,0.00,CLR,,0.00,WeatherDisplay:10.37,2013-01-30 10:25:00,
2013-01-30 05:30:00,53.2,43.7,29.47,NNE,22,0.0,0.0,70,0.00,CLR,,0.00,WeatherDisplay:10.37,2013-01-30 10:30:00,
2013-01-30 05:40:00,53.2,44.1,29.47,NNE,22,0.0,0.0,71,0.00,CLR,,0.00,WeatherDisplay:10.37,2013-01-30 10:40:00,
2013-01-30 05:45:00,53.2,44.1,29.46,NNE,22,0.0,0.0,71,0.00,CLR,,0.00,WeatherDisplay:10.37,2013-01-30 10:45:00,
2013-01-30 05:50:00,53.2,44.1,29.46,NNE,22,0.0,0.0,71,0.00,CLR,,0.00,WeatherDisplay:10.37,2013-01-30 10:50:00,
2013-01-30 05:55:00,53.1,43.9,29.46,NNE,22,0.0,0.0,71,0.00,CLR,,0.00,WeatherDisplay:10.37,2013-01-30 10:55:00,
2013-01-30 06:00:00,53.2,44.1,29.46,NNE,22,0.0,0.0,71,0.00,CLR,,0.00,WeatherDisplay:10.37,2013-01-30 11:00:00,
2013-01-30 06:05:00,53.1,44.3,29.45,NNE,22,0.0,0.0,72,0.00,CLR,,0.00,WeatherDisplay:10.37,2013-01-30 11:05:00,
2013-01-30 06:15:00,53.2,44.4,29.44,East,87,0.0,0.0,72,0.00,CLR,,0.00,WeatherDisplay:10.37,2013-01-30 11:15:00,
2013-01-30 06:20:00,53.2,44.4,29.43,ENE,74,0.0,0.0,72,0.00,CLR,,0.00,WeatherDisplay:10.37,2013-01-30 11:20:00,
2013-01-30 06:30:00,53.2,44.4,29.43,NE,45,0.0,0.0,72,0.00,CLR,,0.00,WeatherDisplay:10.37,2013-01-30 11:30:00,
2013-01-30 06:35:00,53.1,44.3,29.43,NE,45,0.0,0.0,72,0.00,CLR,,0.00,WeatherDisplay:10.37,2013-01-30 11:35:00,
2013-01-30 06:40:00,53.1,44.3,29.43,NE,45,0.0,0.0,72,0.00,CLR,,0.00,WeatherDisplay:10.37,2013-01-30 11:40:00,
2013-01-30 06:45:00,53.1,44.6,29.42,NE,45,0.0,0.0,73,0.00,CLR,,0.00,WeatherDisplay:10.37,2013-01-30 11:45:00,
2013-01-30 06:50:00,53.1,44.6,29.42,NE,45,0.0,0.0,73,0.00,CLR,,0.00,WeatherDisplay:10.37,2013-01-30 11:50:00,
2013-01-30 06:55:00,52.9,44.8,29.42,NE,45,0.0,0.0,74,0.00,CLR,,0.00,WeatherDisplay:10.37,2013-01-30 11:55:00,
2013-01-30 07:00:00,52.9,44.8,29.42,NE,45,0.0,0.0,74,0.00,CLR,,0.00,WeatherDisplay:10.37,2013-01-30 12:00:00,
2013-01-30 07:05:00,53.1,45.0,29.42,NE,45,0.0,0.0,74,0.00,CLR,,0.00,WeatherDisplay:10.37,2013-01-30 12:05:00,
2013-01-30 07:10:00,53.1,45.3,29.42,NE,45,0.0,0.0,75,0.00,CLR,,0.00,WeatherDisplay:10.37,2013-01-30 12:10:00,
2013-01-30 07:20:00,53.2,45.8,29.41,NNE,18,0.0,0.0,76,0.00,CLR,,0.00,WeatherDisplay:10.37,2013-01-30 12:20:00,
2013-01-30 07:25:00,53.4,46.0,29.41,NW,322,0.0,0.0,76,0.00,CLR,,0.00,WeatherDisplay:10.37,2013-01-30 12:25:00,
2013-01-30 07:30:00,54.2,47.1,29.40,East,98,0.0,0.0,77,0.00,CLR,,0.00,WeatherDisplay:10.37,2013-01-30 12:30:00,
2013-01-30 07:35:00,54.9,47.8,29.40,ENE,71,0.0,0.0,77,0.00,CLR,,0.00,WeatherDisplay:10.37,2013-01-30 12:35:00,
2013-01-30 07:40:00,55.2,48.1,29.39,NE,55,0.0,0.0,77,0.00,CLR,,0.00,WeatherDisplay:10.37,2013-01-30 12:40:00,
2013-01-30 07:45:00,55.8,48.7,29.39,West,272,0.0,0.0,77,0.00,CLR,,0.00,WeatherDisplay:10.37,2013-01-30 12:45:00,
2013-01-30 07:50:00,56.3,48.8,29.40,South,190,0.0,0.0,76,0.00,CLR,,0.00,WeatherDisplay:10.37,2013-01-30 12:50:00,
2013-01-30 07:55:00,57.0,49.1,29.39,SE,136,0.0,0.0,75,0.00,CLR,,0.00,WeatherDisplay:10.37,2013-01-30 12:55:00,
2013-01-30 08:00:00,57.5,49.2,29.39,West,278,0.0,0.0,74,0.00,CLR,,0.00,WeatherDisplay:10.37,2013-01-30 13:00:00,
2013-01-30 08:05:00,57.9,48.9,29.39,WNW,289,0.0,0.0,72,0.00,CLR,,0.00,WeatherDisplay:10.37,2013-01-30 13:05:00,
2013-01-30 08:10:00,58.5,48.7,29.39,West,262,0.0,0.0,70,0.00,CLR,,0.00,WeatherDisplay:10.37,2013-01-30 13:10:00,
2013-01-30 08:20:00,59.2,48.6,29.38,NNW,339,0.0,0.0,68,0.00,CLR,,0.00,WeatherDisplay:10.37,2013-01-30 13:20:00,
2013-01-30 08:25:00,59.5,48.6,29.37,NNE,28,0.0,0.0,67,0.00,CLR,,0.00,WeatherDisplay:10.37,2013-01-30 13:25:00,
2013-01-30 08:35:00,60.2,48.4,29.37,ENE,71,0.0,0.0,65,0.00,CLR,,0.00,WeatherDisplay:10.37,2013-01-30 13:35:00,
2013-01-30 08:40:00,60.4,48.2,29.36,NE,36,0.0,0.0,64,0.00,CLR,,0.00,WeatherDisplay:10.37,2013-01-30 13:40:00,
2013-01-30 08:45:00,61.0,48.7,29.35,NNE,19,1.0,1.0,64,0.00,CLR,,0.00,WeatherDisplay:10.37,2013-01-30 13:45:00,
2013-01-30 08:55:00,61.7,48.5,29.34,SSW,197,0.0,0.0,62,0.00,CLR,,0.00,WeatherDisplay:10.37,2013-01-30 13:55:00,
2013-01-30 09:00:00,62.2,48.6,29.33,NNE,23,0.0,0.0,61,0.00,CLR,,0.00,WeatherDisplay:10.37,2013-01-30 14:00:00,
2013-01-30 09:10:00,62.8,48.2,29.33,ESE,116,1.0,1.0,59,0.00,CLR,,0.00,WeatherDisplay:10.37,2013-01-30 14:10:00,
2013-01-30 09:15:00,62.9,48.3,29.33,NE,42,0.0,2.0,59,0.00,CLR,,0.00,WeatherDisplay:10.37,2013-01-30 14:15:00,
2013-01-30 09:25:00,63.5,48.5,29.32,NW,322,0.0,0.0,58,0.00,CLR,,0.00,WeatherDisplay:10.37,2013-01-30 14:25:00,
2013-01-30 09:30:00,63.7,48.2,29.32,NNW,327,0.0,0.0,57,0.00,CLR,,0.00,WeatherDisplay:10.37,2013-01-30 14:30:00,
2013-01-30 09:35:00,63.9,47.9,29.31,NNW,335,0.0,0.0,56,0.00,CLR,,0.00,WeatherDisplay:10.37,2013-01-30 14:35:00,
2013-01-30 09:40:00,63.9,47.9,29.31,NNW,340,0.0,0.0,56,0.00,CLR,,0.00,WeatherDisplay:10.37,2013-01-30 14:40:00,
2013-01-30 09:45:00,64.0,48.0,29.31,NNW,343,0.0,0.0,56,0.00,CLR,,0.00,WeatherDisplay:10.37,2013-01-30 14:45:00,
2013-01-30 09:50:00,64.0,48.0,29.30,NNW,343,0.0,0.0,56,0.00,CLR,,0.00,WeatherDisplay:10.37,2013-01-30 14:50:00,
2013-01-30 09:55:00,64.6,48.5,29.29,NW,322,0.0,0.0,56,0.00,CLR,,0.00,WeatherDisplay:10.37,2013-01-30 14:55:00,
2013-01-30 10:00:00,64.6,49.0,29.29,NW,309,0.0,0.0,57,0.00,CLR,,0.00,WeatherDisplay:10.37,2013-01-30 15:00:00,
2013-01-30 10:05:00,64.6,49.0,29.38,North,351,3.0,6.0,57,0.00,CLR,,0.00,WeatherDisplay:10.37,2013-01-30 15:05:00,
2013-01-30 10:10:00,63.1,49.5,29.39,NNE,27,1.0,1.0,61,0.10,RA,,0.10,WeatherDisplay:10.37,2013-01-30 15:10:00,
2013-01-30 10:15:00,61.6,49.7,29.40,ESE,116,1.0,1.0,65,0.02,RA,,0.12,WeatherDisplay:10.37,2013-01-30 15:15:00,
2013-01-30 10:20:00,60.8,50.6,29.41,SE,128,0.0,0.0,69,0.00,RA,,0.12,WeatherDisplay:10.37,2013-01-30 15:20:00,
2013-01-30 10:25:00,60.4,50.6,29.42,ENE,66,0.0,0.0,70,0.00,,,0.12,WeatherDisplay:10.37,2013-01-30 15:25:00,
2013-01-30 10:30:00,59.8,50.8,29.43,SSW,210,5.0,6.0,72,0.00,CLR,,0.12,WeatherDisplay:10.37,2013-01-30 15:30:00,
2013-01-30 10:35:00,59.7,51.4,29.43,South,170,2.0,4.0,74,0.00,CLR,,0.12,WeatherDisplay:10.37,2013-01-30 15:35:00,
2013-01-30 10:40:00,59.4,51.4,29.43,ESE,112,1.0,2.0,75,0.00,CLR,,0.12,WeatherDisplay:10.37,2013-01-30 15:40:00,
2013-01-30 10:45:00,59.2,52.0,29.44,ENE,60,0.0,0.0,77,0.02,RA,,0.14,WeatherDisplay:10.37,2013-01-30 15:45:00,
2013-01-30 10:50:00,59.0,52.1,29.44,ENE,73,1.0,1.0,78,0.00,RA,,0.14,WeatherDisplay:10.37,2013-01-30 15:50:00,
2013-01-30 10:55:00,58.9,52.1,29.43,SSW,197,0.0,1.0,78,0.00,CLR,,0.14,WeatherDisplay:10.37,2013-01-30 15:55:00,
2013-01-30 11:00:00,58.8,52.3,29.43,SSW,213,0.0,0.0,79,0.00,CLR,,0.14,WeatherDisplay:10.37,2013-01-30 16:00:00,
2013-01-30 11:05:00,58.8,52.7,29.43,ESE,116,0.0,0.0,80,0.00,CLR,,0.14,WeatherDisplay:10.37,2013-01-30 16:05:00,
2013-01-30 11:10:00,58.6,52.8,29.43,SE,133,0.0,0.0,81,0.00,CLR,,0.14,WeatherDisplay:10.37,2013-01-30 16:10:00,
2013-01-30 11:15:00,58.6,52.8,29.43,SSE,150,1.0,2.0,81,0.00,CLR,,0.14,WeatherDisplay:10.37,2013-01-30 16:15:00,
2013-01-30 11:20:00,58.6,52.8,29.43,SSE,158,0.0,2.0,81,0.00,CLR,,0.14,WeatherDisplay:10.37,2013-01-30 16:20:00,
2013-01-30 11:25:00,58.6,53.2,29.42,SE,140,0.0,0.0,82,0.00,CLR,,0.14,WeatherDisplay:10.37,2013-01-30 16:25:00,
2013-01-30 11:30:00,58.8,53.3,29.42,SE,125,1.0,2.0,82,0.00,CLR,,0.14,WeatherDisplay:10.37,2013-01-30 16:30:00,
2013-01-30 11:35:00,58.8,53.7,29.42,ESE,120,0.0,0.0,83,0.00,CLR,,0.14,WeatherDisplay:10.37,2013-01-30 16:35:00,
2013-01-30 11:40:00,59.2,54.0,29.41,ESE,120,0.0,1.0,83,0.00,CLR,,0.14,WeatherDisplay:10.37,2013-01-30 16:40:00,
2013-01-30 11:45:00,59.2,54.0,29.41,SE,125,2.0,5.0,83,0.00,CLR,,0.14,WeatherDisplay:10.37,2013-01-30 16:45:00,
2013-01-30 11:50:00,59.1,54.0,29.41,SE,129,0.0,5.0,83,0.00,CLR,,0.14,WeatherDisplay:10.37,2013-01-30 16:50:00,
2013-01-30 11:55:00,59.1,53.9,29.41,ESE,122,0.0,0.0,83,0.00,CLR,,0.14,WeatherDisplay:10.37,2013-01-30 16:55:00,
2013-01-30 12:00:00,59.0,53.8,29.42,ENE,67,1.0,2.0,83,0.00,CLR,,0.14,WeatherDisplay:10.37,2013-01-30 17:00:00,
2013-01-30 12:05:00,58.8,53.7,29.42,East,84,0.0,0.0,83,0.00,CLR,,0.14,WeatherDisplay:10.37,2013-01-30 17:05:00,
2013-01-30 12:15:00,58.6,53.2,29.41,ESE,115,0.0,0.0,82,0.00,CLR,,0.14,WeatherDisplay:10.37,2013-01-30 17:15:00,
2013-01-30 12:20:00,58.6,53.2,29.41,East,88,0.0,0.0,82,0.00,CLR,,0.14,WeatherDisplay:10.37,2013-01-30 17:20:00,
2013-01-30 12:25:00,58.6,52.8,29.42,East,99,0.0,1.0,81,0.00,CLR,,0.14,WeatherDisplay:10.37,2013-01-30 17:25:00,
2013-01-30 12:30:00,58.5,52.6,29.41,ESE,103,1.0,6.0,81,0.00,CLR,,0.14,WeatherDisplay:10.37,2013-01-30 17:30:00,
2013-01-30 12:40:00,58.5,52.3,29.41,ESE,113,0.0,0.0,80,0.00,CLR,,0.14,WeatherDisplay:10.37,2013-01-30 17:40:00,
2013-01-30 12:50:00,58.1,52.0,29.41,East,101,0.0,0.0,80,0.00,RA,,0.16,WeatherDisplay:10.37,2013-01-30 17:50:00,
2013-01-30 12:55:00,58.1,52.0,29.41,East,98,0.0,0.0,80,0.00,CLR,,0.16,WeatherDisplay:10.37,2013-01-30 17:55:00,
2013-01-30 13:00:00,57.9,51.8,29.41,ESE,104,0.0,0.0,80,0.00,CLR,,0.16,WeatherDisplay:10.37,2013-01-30 18:00:00,
2013-01-30 13:05:00,57.9,51.8,29.40,ENE,58,0.0,0.0,80,0.00,CLR,,0.16,WeatherDisplay:10.37,2013-01-30 18:05:00,
2013-01-30 13:10:00,57.6,51.4,29.42,East,94,0.0,0.0,80,0.00,CLR,,0.16,WeatherDisplay:10.37,2013-01-30 18:10:00,
2013-01-30 13:15:00,57.6,51.4,29.42,SE,143,0.0,0.0,80,0.00,CLR,,0.16,WeatherDisplay:10.37,2013-01-30 18:15:00,
2013-01-30 13:20:00,57.6,51.8,29.42,ENE,63,0.0,0.0,81,0.00,CLR,,0.16,WeatherDisplay:10.37,2013-01-30 18:20:00,
2013-01-30 13:30:00,57.0,51.2,29.42,ESE,113,0.0,0.0,81,0.00,CLR,,0.16,WeatherDisplay:10.37,2013-01-30 18:30:00,
2013-01-30 13:35:00,56.8,51.1,29.42,NE,45,0.0,0.0,81,0.00,CLR,,0.16,WeatherDisplay:10.37,2013-01-30 18:35:00,
2013-01-30 13:40:00,56.8,51.1,29.42,NNE,13,0.0,0.0,81,0.00,CLR,,0.16,WeatherDisplay:10.37,2013-01-30 18:40:00,
2013-01-30 13:45:00,56.7,51.2,29.42,NNE,33,0.0,0.0,82,0.00,CLR,,0.16,WeatherDisplay:10.37,2013-01-30 18:45:00,
2013-01-30 13:50:00,56.5,51.1,29.40,ESE,122,0.0,0.0,82,0.00,CLR,,0.16,WeatherDisplay:10.37,2013-01-30 18:50:00,
2013-01-30 13:55:00,56.3,50.9,29.40,East,98,0.0,0.0,82,0.00,CLR,,0.16,WeatherDisplay:10.37,2013-01-30 18:55:00,
2013-01-30 14:00:00,56.3,50.9,29.40,NNE,28,0.0,0.0,82,0.02,RA,,0.18,WeatherDisplay:10.37,2013-01-30 19:00:00,
2013-01-30 14:05:00,56.1,51.4,29.40,North,358,0.0,0.0,84,0.00,RA,,0.18,WeatherDisplay:10.37,2013-01-30 19:05:00,
2013-01-30 14:10:00,55.9,51.2,29.39,NNW,331,0.0,0.0,84,0.00,CLR,,0.18,WeatherDisplay:10.37,2013-01-30 19:10:00,
2013-01-30 14:15:00,55.9,51.5,29.39,West,270,0.0,2.0,85,0.02,RA,,0.20,WeatherDisplay:10.37,2013-01-30 19:15:00,
2013-01-30 14:20:00,55.9,51.5,29.39,West,267,0.0,0.0,85,0.00,RA,,0.20,WeatherDisplay:10.37,2013-01-30 19:20:00,
2013-01-30 14:25:00,55.8,51.3,29.39,WNW,285,0.0,0.0,85,0.00,CLR,,0.20,WeatherDisplay:10.37,2013-01-30 19:25:00,
2013-01-30 14:30:00,55.6,51.1,29.40,SSW,200,0.0,0.0,85,0.00,CLR,,0.20,WeatherDisplay:10.37,2013-01-30 19:30:00,
2013-01-30 14:35:00,55.6,51.5,29.39,West,262,0.0,0.0,86,0.02,RA,,0.22,WeatherDisplay:10.37,2013-01-30 19:35:00,
2013-01-30 14:40:00,55.6,51.5,29.39,NW,313,0.0,0.0,86,0.00,RA,,0.22,WeatherDisplay:10.37,2013-01-30 19:40:00,
2013-01-30 14:45:00,55.6,51.5,29.39,WNW,302,0.0,0.0,86,0.00,CLR,,0.22,WeatherDisplay:10.37,2013-01-30 19:45:00,
2013-01-30 14:50:00,55.4,51.6,29.39,WNW,295,0.0,0.0,87,0.02,RA,,0.24,WeatherDisplay:10.37,2013-01-30 19:50:00,
2013-01-30 14:55:00,55.2,51.4,29.39,WNW,302,0.0,0.0,87,0.00,RA,,0.24,WeatherDisplay:10.37,2013-01-30 19:55:00,
2013-01-30 15:00:00,55.2,51.4,29.39,NW,312,0.0,0.0,87,0.00,,,0.24,WeatherDisplay:10.37,2013-01-30 20:00:00,
2013-01-30 15:05:00,55.0,51.2,29.39,NW,306,0.0,0.0,87,0.02,RA,,0.26,WeatherDisplay:10.37,2013-01-30 20:05:00,
2013-01-30 15:10:00,55.0,51.5,29.38,WNW,295,0.0,0.0,88,0.00,RA,,0.26,WeatherDisplay:10.37,2013-01-30 20:10:00,
2013-01-30 15:15:00,55.0,51.5,29.38,NNW,332,0.0,0.0,88,0.00,,,0.26,WeatherDisplay:10.37,2013-01-30 20:15:00,
2013-01-30 15:20:00,54.9,51.4,29.38,North,1,0.0,0.0,88,0.00,CLR,,0.26,WeatherDisplay:10.37,2013-01-30 20:20:00,
2013-01-30 15:25:00,54.9,51.4,29.37,NNW,339,0.0,0.0,88,0.00,CLR,,0.26,WeatherDisplay:10.37,2013-01-30 20:25:00,
2013-01-30 15:30:00,54.9,51.4,29.36,NE,38,0.0,0.0,88,0.00,CLR,,0.26,WeatherDisplay:10.37,2013-01-30 20:30:00,
2013-01-30 15:35:00,54.7,51.2,29.36,NE,39,0.0,0.0,88,0.00,CLR,,0.26,WeatherDisplay:10.37,2013-01-30 20:35:00,
2013-01-30 15:40:00,54.7,51.5,29.36,NW,314,0.0,0.0,89,0.02,RA,,0.28,WeatherDisplay:10.37,2013-01-30 20:40:00,
2013-01-30 15:45:00,54.7,51.5,29.36,NW,306,0.0,0.0,89,0.00,RA,,0.28,WeatherDisplay:10.37,2013-01-30 20:45:00,
2013-01-30 15:50:00,54.7,51.5,29.36,NW,318,1.0,2.0,89,0.00,,,0.28,WeatherDisplay:10.37,2013-01-30 20:50:00,
2013-01-30 15:55:00,54.5,51.3,29.36,NW,304,0.0,2.0,89,0.00,CLR,,0.28,WeatherDisplay:10.37,2013-01-30 20:55:00,
2013-01-30 16:00:00,54.5,51.3,29.36,NW,320,0.0,2.0,89,0.02,RA,,0.30,WeatherDisplay:10.37,2013-01-30 21:00:00,
2013-01-30 16:05:00,54.3,51.5,29.36,West,276,0.0,0.0,90,0.00,RA,,0.30,WeatherDisplay:10.37,2013-01-30 21:05:00,
2013-01-30 16:10:00,54.5,51.6,29.36,WSW,248,0.0,0.0,90,0.00,CLR,,0.30,WeatherDisplay:10.37,2013-01-30 21:10:00,
2013-01-30 16:15:00,54.5,51.6,29.36,WNW,303,0.0,0.0,90,0.00,CLR,,0.30,WeatherDisplay:10.37,2013-01-30 21:15:00,
2013-01-30 16:20:00,54.5,51.6,29.35,WNW,295,0.0,0.0,90,0.00,CLR,,0.30,WeatherDisplay:10.37,2013-01-30 21:20:00,
2013-01-30 16:25:00,54.3,51.4,29.34,WNW,298,0.0,1.0,90,0.02,RA,,0.32,WeatherDisplay:10.37,2013-01-30 21:25:00,
2013-01-30 16:30:00,54.3,51.7,29.35,NNW,335,2.0,2.0,91,0.00,RA,,0.32,WeatherDisplay:10.37,2013-01-30 21:30:00,
2013-01-30 16:35:00,54.3,51.7,29.34,NNW,338,1.0,1.0,91,0.02,RA,,0.34,WeatherDisplay:10.37,2013-01-30 21:35:00,
2013-01-30 16:40:00,54.3,51.7,29.34,NW,307,1.0,1.0,91,0.00,RA,,0.34,WeatherDisplay:10.37,2013-01-30 21:40:00,
2013-01-30 16:45:00,54.3,51.7,29.33,WNW,294,0.0,5.0,91,0.00,CLR,,0.34,WeatherDisplay:10.37,2013-01-30 21:45:00,
2013-01-30 16:50:00,54.3,51.7,29.32,NW,315,1.0,3.0,91,0.02,RA,,0.37,WeatherDisplay:10.37,2013-01-30 21:50:00,
2013-01-30 16:55:00,54.3,51.7,29.32,NNW,334,1.0,3.0,91,0.00,RA,,0.37,WeatherDisplay:10.37,2013-01-30 21:55:00,
2013-01-30 17:00:00,54.1,51.9,29.32,NNW,335,0.0,0.0,92,0.02,RA,,0.39,WeatherDisplay:10.37,2013-01-30 22:00:00,
2013-01-30 17:05:00,54.1,51.9,29.30,North,9,0.0,0.0,92,0.00,RA,,0.39,WeatherDisplay:10.37,2013-01-30 22:05:00,
2013-01-30 17:10:00,54.1,51.9,29.30,NNW,348,0.0,0.0,92,0.00,CLR,,0.39,WeatherDisplay:10.37,2013-01-30 22:10:00,
2013-01-30 17:15:00,54.3,52.0,29.30,NNE,26,0.0,0.0,92,0.00,CLR,,0.39,WeatherDisplay:10.37,2013-01-30 22:15:00,
2013-01-30 17:20:00,54.3,52.0,29.30,East,98,0.0,0.0,92,0.00,CLR,,0.39,WeatherDisplay:10.37,2013-01-30 22:20:00,
2013-01-30 17:25:00,54.1,51.9,29.30,WSW,249,1.0,1.0,92,0.00,CLR,,0.39,WeatherDisplay:10.37,2013-01-30 22:25:00,
2013-01-30 17:30:00,54.3,52.0,29.28,West,278,0.0,1.0,92,0.02,RA,,0.41,WeatherDisplay:10.37,2013-01-30 22:30:00,
2013-01-30 17:35:00,54.3,54.3,29.27,NNW,336,5.0,6.0,100,0.00,RA,,0.41,WeatherDisplay:10.37,2013-01-30 22:35:00,
2013-01-30 17:40:00,54.3,54.3,29.26,NE,45,1.0,6.0,100,0.02,RA,,0.43,WeatherDisplay:10.37,2013-01-30 22:40:00,
2013-01-30 17:45:00,54.3,54.3,29.26,East,96,2.0,2.0,100,0.00,RA,,0.43,WeatherDisplay:10.37,2013-01-30 22:45:00,
2013-01-30 17:50:00,54.5,54.5,29.25,ESE,116,0.0,1.0,100,0.00,,,0.43,WeatherDisplay:10.37,2013-01-30 22:50:00,
2013-01-30 17:55:00,54.3,54.3,29.25,SE,138,0.0,0.0,100,0.00,CLR,,0.43,WeatherDisplay:10.37,2013-01-30 22:55:00,
2013-01-30 18:00:00,54.4,54.4,29.25,South,172,0.0,0.0,100,0.02,RA,,0.45,WeatherDisplay:10.37,2013-01-30 23:00:00,
2013-01-30 18:05:00,54.5,54.5,29.26,NE,47,0.0,0.0,100,0.00,RA,,0.45,WeatherDisplay:10.37,2013-01-30 23:05:00,
2013-01-30 18:10:00,54.5,54.5,29.26,North,355,0.0,0.0,100,0.00,CLR,,0.45,WeatherDisplay:10.37,2013-01-30 23:10:00,
2013-01-30 18:15:00,54.5,54.5,29.25,NE,34,0.0,5.0,100,0.00,CLR,,0.45,WeatherDisplay:10.37,2013-01-30 23:15:00,
2013-01-30 18:20:00,54.7,54.7,29.25,ESE,111,0.0,5.0,100,0.00,CLR,,0.45,WeatherDisplay:10.37,2013-01-30 23:20:00,
2013-01-30 18:25:00,54.5,54.5,29.25,ENE,76,0.0,5.0,100,0.02,RA,,0.47,WeatherDisplay:10.37,2013-01-30 23:25:00,
2013-01-30 18:30:00,54.5,54.5,29.23,North,8,0.0,5.0,100,0.00,RA,,0.47,WeatherDisplay:10.37,2013-01-30 23:30:00,
2013-01-30 18:35:00,54.7,54.7,29.24,NNE,25,0.0,0.0,100,0.00,CLR,,0.47,WeatherDisplay:10.37,2013-01-30 23:35:00,
2013-01-30 18:40:00,54.7,54.7,29.23,NE,43,2.0,2.0,100,0.02,RA,,0.49,WeatherDisplay:10.37,2013-01-30 23:40:00,
2013-01-30 18:45:00,54.5,54.5,29.23,ENE,60,1.0,4.0,100,0.00,RA,,0.49,WeatherDisplay:10.37,2013-01-30 23:45:00,
2013-01-30 18:50:00,54.7,54.7,29.22,East,89,0.0,4.0,100,0.02,RA,,0.51,WeatherDisplay:10.37,2013-01-30 23:50:00,
2013-01-30 18:55:00,54.7,54.7,29.22,WNW,299,2.0,3.0,100,0.00,RA,,0.51,WeatherDisplay:10.37,2013-01-30 23:55:00,
2013-01-30 19:00:00,54.6,54.6,29.20,NNW,339,1.0,2.0,100,0.02,RA,,0.53,WeatherDisplay:10.37,2013-01-31 00:00:00,
2013-01-30 19:10:00,54.7,54.7,29.20,NNW,331,0.0,5.0,100,0.00,RA,,0.55,WeatherDisplay:10.37,2013-01-31 00:10:00,
2013-01-30 19:15:00,54.7,54.7,29.20,NW,317,1.0,3.0,100,0.00,,,0.55,WeatherDisplay:10.37,2013-01-31 00:15:00,
2013-01-30 19:20:00,54.7,54.7,29.20,West,278,1.0,3.0,100,0.00,CLR,,0.55,WeatherDisplay:10.37,2013-01-31 00:20:00,
2013-01-30 19:25:00,54.9,54.9,29.19,West,277,0.0,1.0,100,0.00,CLR,,0.55,WeatherDisplay:10.37,2013-01-31 00:25:00,
2013-01-30 19:35:00,54.9,54.9,29.18,North,11,0.0,2.0,100,0.02,RA,,0.57,WeatherDisplay:10.37,2013-01-31 00:35:00,
2013-01-30 19:40:00,54.9,54.9,29.18,ENE,67,0.0,0.0,100,0.00,RA,,0.57,WeatherDisplay:10.37,2013-01-31 00:40:00,
2013-01-30 19:45:00,54.9,54.9,29.18,West,259,0.0,0.0,100,0.00,CLR,,0.57,WeatherDisplay:10.37,2013-01-31 00:45:00,
2013-01-30 19:50:00,54.9,54.9,29.18,West,261,0.0,1.0,100,0.02,RA,,0.59,WeatherDisplay:10.37,2013-01-31 00:50:00,
2013-01-30 19:55:00,54.9,54.9,29.16,NNE,13,0.0,0.0,100,0.00,RA,,0.59,WeatherDisplay:10.37,2013-01-31 00:55:00,
2013-01-30 20:00:00,54.9,54.9,29.17,WNW,290,0.0,0.0,100,0.00,CLR,,0.59,WeatherDisplay:10.37,2013-01-31 01:00:00,
2013-01-30 20:05:00,54.9,54.9,29.17,WNW,287,3.0,4.0,100,0.00,CLR,,0.59,WeatherDisplay:10.37,2013-01-31 01:05:00,
2013-01-30 20:10:00,54.9,54.9,29.17,NW,326,2.0,4.0,100,0.00,CLR,,0.59,WeatherDisplay:10.37,2013-01-31 01:10:00,
2013-01-30 20:15:00,54.9,54.9,29.19,NNW,344,1.0,2.0,100,0.00,CLR,,0.59,WeatherDisplay:10.37,2013-01-31 01:15:00,
2013-01-30 20:20:00,54.9,54.9,29.18,ENE,68,0.0,1.0,100,0.00,CLR,,0.59,WeatherDisplay:10.37,2013-01-31 01:20:00,
2013-01-30 20:25:00,54.9,54.9,29.17,SE,127,0.0,2.0,100,0.02,RA,,0.61,WeatherDisplay:10.37,2013-01-31 01:25:00,
2013-01-30 20:30:00,54.9,54.9,29.17,SE,130,0.0,0.0,100,0.00,RA,,0.61,WeatherDisplay:10.37,2013-01-31 01:30:00,
2013-01-30 20:35:00,54.8,54.8,29.17,ENE,77,0.0,0.0,100,0.00,CLR,,0.61,WeatherDisplay:10.37,2013-01-31 01:35:00,
2013-01-30 20:40:00,54.5,54.5,29.16,ENE,63,0.0,0.0,100,0.00,CLR,,0.61,WeatherDisplay:10.37,2013-01-31 01:40:00,
2013-01-30 20:45:00,54.3,54.3,29.16,ENE,73,0.0,0.0,100,0.00,CLR,,0.61,WeatherDisplay:10.37,2013-01-31 01:45:00,
2013-01-30 20:50:00,54.3,54.3,29.16,ENE,76,0.0,1.0,100,0.00,CLR,,0.61,WeatherDisplay:10.37,2013-01-31 01:50:00,
2013-01-30 20:55:00,54.0,54.0,29.15,East,97,0.0,2.0,100,0.02,RA,,0.63,WeatherDisplay:10.37,2013-01-31 01:55:00,
2013-01-30 21:00:00,53.8,53.8,29.15,ESE,112,0.0,1.0,100,0.00,RA,,0.63,WeatherDisplay:10.37,2013-01-31 02:00:00,
2013-01-30 21:05:00,53.8,51.8,29.14,SE,128,3.0,3.0,93,0.00,,,0.63,WeatherDisplay:10.37,2013-01-31 02:05:00,
2013-01-30 21:10:00,53.5,51.2,29.14,SE,129,3.0,3.0,92,0.00,CLR,,0.63,WeatherDisplay:10.37,2013-01-31 02:10:00,
2013-01-30 21:15:00,53.4,51.2,29.15,East,89,3.0,3.0,92,0.00,CLR,,0.63,WeatherDisplay:10.37,2013-01-31 02:15:00,
2013-01-30 21:20:00,53.2,50.7,29.14,ESE,108,0.0,3.0,91,0.00,CLR,,0.63,WeatherDisplay:10.37,2013-01-31 02:20:00,
2013-01-30 21:25:00,53.1,50.5,29.14,ESE,115,2.0,5.0,91,0.00,CLR,,0.63,WeatherDisplay:10.37,2013-01-31 02:25:00,
2013-01-30 21:30:00,52.9,50.4,29.14,East,88,1.0,5.0,91,0.00,CLR,,0.63,WeatherDisplay:10.37,2013-01-31 02:30:00,
2013-01-30 21:35:00,52.7,49.8,29.15,East,101,0.0,0.0,90,0.00,CLR,,0.63,WeatherDisplay:10.37,2013-01-31 02:35:00,
2013-01-30 21:40:00,52.5,50.0,29.14,ESE,108,3.0,4.0,91,0.02,RA,,0.65,WeatherDisplay:10.37,2013-01-31 02:40:00,
2013-01-30 21:45:00,52.5,50.0,29.14,SE,126,0.0,2.0,91,0.00,RA,,0.65,WeatherDisplay:10.37,2013-01-31 02:45:00,
2013-01-30 21:50:00,52.3,49.5,29.14,ESE,111,5.0,5.0,90,0.02,RA,,0.67,WeatherDisplay:10.37,2013-01-31 02:50:00,
2013-01-30 21:55:00,52.2,49.3,29.12,East,96,1.0,2.0,90,0.00,RA,,0.67,WeatherDisplay:10.37,2013-01-31 02:55:00,
2013-01-30 22:00:00,52.2,49.3,29.14,ENE,78,0.0,0.0,90,0.00,CLR,,0.67,WeatherDisplay:10.37,2013-01-31 03:00:00,
2013-01-30 22:05:00,52.0,49.1,29.14,ENE,57,1.0,2.0,90,0.02,RA,,0.69,WeatherDisplay:10.37,2013-01-31 03:05:00,
2013-01-30 22:10:00,52.0,48.8,29.14,ESE,106,1.0,6.0,89,0.00,RA,,0.69,WeatherDisplay:10.37,2013-01-31 03:10:00,
2013-01-30 22:15:00,52.0,48.8,29.14,SE,127,0.0,6.0,89,0.00,,,0.69,WeatherDisplay:10.37,2013-01-31 03:15:00,
2013-01-30 22:20:00,51.8,48.6,29.13,ESE,112,0.0,0.0,89,0.00,CLR,,0.69,WeatherDisplay:10.37,2013-01-31 03:20:00,
2013-01-30 22:25:00,51.4,48.3,29.13,ESE,110,0.0,1.0,89,0.00,CLR,,0.69,WeatherDisplay:10.37,2013-01-31 03:25:00,
2013-01-30 22:30:00,51.4,48.3,29.12,East,100,1.0,2.0,89,0.02,RA,,0.71,WeatherDisplay:10.37,2013-01-31 03:30:00,
2013-01-30 22:35:00,51.3,48.1,29.13,SE,140,0.0,2.0,89,0.00,RA,,0.71,WeatherDisplay:10.37,2013-01-31 03:35:00,
2013-01-30 22:40:00,51.1,47.6,29.13,ESE,121,5.0,6.0,88,0.00,,,0.71,WeatherDisplay:10.37,2013-01-31 03:40:00,
2013-01-30 22:45:00,50.9,47.5,29.14,SE,125,0.0,6.0,88,0.00,CLR,,0.71,WeatherDisplay:10.37,2013-01-31 03:45:00,
2013-01-30 22:55:00,50.7,47.3,29.14,ESE,117,0.0,2.0,88,0.00,CLR,,0.71,WeatherDisplay:10.37,2013-01-31 03:55:00,
2013-01-30 23:00:00,50.5,47.1,29.16,East,92,0.0,0.0,88,0.00,CLR,,0.71,WeatherDisplay:10.37,2013-01-31 04:00:00,
2013-01-30 23:05:00,50.4,46.6,29.15,East,84,0.0,2.0,87,0.00,CLR,,0.71,WeatherDisplay:10.37,2013-01-31 04:05:00,
2013-01-30 23:10:00,50.4,46.3,29.15,East,88,1.0,2.0,86,0.00,CLR,,0.71,WeatherDisplay:10.37,2013-01-31 04:10:00,
2013-01-30 23:15:00,50.2,45.8,29.14,East,93,0.0,3.0,85,0.02,RA,,0.73,WeatherDisplay:10.37,2013-01-31 04:15:00,
2013-01-30 23:20:00,50.1,45.7,29.13,East,85,6.0,6.0,85,0.00,RA,,0.73,WeatherDisplay:10.37,2013-01-31 04:20:00,
2013-01-30 23:25:00,50.0,45.4,29.14,ENE,75,0.0,2.0,84,0.00,CLR,,0.73,WeatherDisplay:10.37,2013-01-31 04:25:00,
2013-01-30 23:35:00,49.8,45.2,29.17,ESE,112,2.0,2.0,84,0.00,CLR,,0.73,WeatherDisplay:10.37,2013-01-31 04:35:00,
2013-01-30 23:40:00,49.6,45.0,29.17,East,92,0.0,2.0,84,0.00,CLR,,0.73,WeatherDisplay:10.37,2013-01-31 04:40:00,
2013-01-30 23:45:00,49.6,45.0,29.16,East,99,0.0,0.0,84,0.00,CLR,,0.73,WeatherDisplay:10.37,2013-01-31 04:45:00,
2013-01-30 23:50:00,49.6,44.7,29.15,ESE,118,0.0,3.0,83,0.00,CLR,,0.73,WeatherDisplay:10.37,2013-01-31 04:50:00,
2013-01-30 23:55:00,49.6,44.7,29.15,ENE,78,0.0,3.0,83,0.00,CLR,,0.73,WeatherDisplay:10.37,2013-01-31 04:55:00,